Location: La Sioule Rivi�re
(46.3664°N, 3.3197°E)
Time: 12:14:26
(UTC+00:00)

NOAA 11 - Pass Details

Date: 29 October 2020
Orbit: 833 x 850 km, 98.4° (Epoch: 23 November)

Event Time Altitude Azimuth Distance (km) Brightness Sun altitude
Rises 17:18:27 0° 157° (SSE) 3,381 7.2 -7.9°
Reaches altitude 10° 17:20:48 10° 156° (SSE) 2,448 6.5 -8.3°
Maximum altitude 17:26:12 71° 73° (ENE) 884 4.1 -9.2°
Drops below altitude 10° 17:31:37 10° 350° (N) 2,456 6.6 -10.1°
Sets 17:34:00 0° 349° (NNW) 3,393 7.4 -10.5°
